| time (UTC) | temp C | wind direction | speed KPH | gust KPH | rain 1hr cm | rain 24hr cm | rain mn cm | humidity % | barometer mb |
| 20260507203018 | 11 | 313 | 9.7 | 20.9 | 0.00 | 0.00 | 0.00 | 47 | 1007.0 |
| 20260507202018 | 11 | 323 | 9.7 | 24.1 | 0.00 | 0.00 | 0.00 | 47 | 1007.0 |
| 20260507201019 | 11 | 306 | 9.7 | 22.5 | 0.00 | 0.00 | 0.00 | 46 | 1007.1 |
| 20260507200020 | 11 | 313 | 8.0 | 22.5 | 0.00 | 0.00 | 0.00 | 45 | 1007.0 |
| 20260507195019 | 11 | 308 | 9.7 | 19.3 | 0.00 | 0.00 | 0.00 | 44 | 1007.1 |
| 20260507194020 | 11 | 304 | 11.3 | 24.1 | 0.00 | 0.00 | 0.00 | 46 | 1007.2 |
| 20260507193019 | 11 | 311 | 11.3 | 22.5 | 0.00 | 0.00 | 0.00 | 47 | 1007.1 |
| 20260507192019 | 11 | 307 | 8.0 | 16.1 | 0.00 | 0.00 | 0.00 | 47 | 1007.1 |
| 20260507191019 | 10 | 307 | 9.7 | 22.5 | 0.00 | 0.00 | 0.00 | 48 | 1007.2 |
| 20260507190039 | 10 | 303 | 9.7 | 27.4 | 0.00 | 0.00 | 0.00 | 45 | 1007.2 |
| 20260507185041 | 10 | 318 | 8.0 | 17.7 | 0.00 | 0.00 | 0.00 | 45 | 1007.2 |
| 20260507184017 | 11 | 264 | 6.4 | 14.5 | 0.00 | 0.00 | 0.00 | 44 | 1007.1 |
| 20260507183017 | 11 | 293 | 6.4 | 17.7 | 0.00 | 0.00 | 0.00 | 45 | 1007.1 |
| 20260507182041 | 10 | 299 | 8.0 | 19.3 | 0.00 | 0.00 | 0.00 | 46 | 1007.1 |
| 20260507181017 | 10 | 311 | 9.7 | 19.3 | 0.00 | 0.00 | 0.00 | 46 | 1007.1 |
| 20260507180040 | 10 | 251 | 8.0 | 17.7 | 0.00 | 0.00 | 0.00 | 45 | 1007.1 |
| 20260507175021 | 10 | 282 | 8.0 | 19.3 | 0.00 | 0.00 | 0.00 | 47 | 1006.9 |
| 20260507174018 | 10 | 292 | 9.7 | 20.9 | 0.00 | 0.00 | 0.00 | 46 | 1006.9 |
| 20260507173019 | 11 | 295 | 11.3 | 25.7 | 0.00 | 0.00 | 0.00 | 44 | 1006.9 |
| 20260507172038 | 10 | 252 | 8.0 | 22.5 | 0.00 | 0.00 | 0.00 | 44 | 1007.0 |
| 20260507171018 | 10 | 262 | 8.0 | 20.9 | 0.00 | 0.00 | 0.00 | 45 | 1007.0 |
| 20260507170020 | 10 | 313 | 8.0 | 17.7 | 0.00 | 0.00 | 0.00 | 45 | 1007.1 |
| 20260507165017 | 10 | 302 | 9.7 | 20.9 | 0.00 | 0.00 | 0.00 | 46 | 1007.1 |
| 20260507164020 | 11 | 270 | 8.0 | 22.5 | 0.00 | 0.00 | 0.00 | 45 | 1007.3 |
| 20260507163019 | 11 | 286 | 8.0 | 17.7 | 0.00 | 0.00 | 0.00 | 45 | 1007.2 |
| 20260507162019 | 11 | 285 | 9.7 | 20.9 | 0.00 | 0.00 | 0.00 | 45 | 1007.2 |
| 20260507161037 | 10 | 217 | 9.7 | 19.3 | 0.00 | 0.00 | 0.00 | 49 | 1007.3 |
| 20260507160020 | 10 | 223 | 8.0 | 17.7 | 0.00 | 0.00 | 0.00 | 52 | 1007.3 |
| 20260507155019 | 10 | 262 | 8.0 | 22.5 | 0.00 | 0.00 | 0.00 | 54 | 1007.4 |
| 20260507154017 | 10 | 277 | 9.7 | 20.9 | 0.00 | 0.00 | 0.00 | 54 | 1007.4 |
| 20260507153017 | 9 | 239 | 8.0 | 19.3 | 0.00 | 0.00 | 0.00 | 57 | 1007.4 |
| 20260507152100 | 9 | 268 | 9.7 | 19.3 | 0.00 | 0.00 | 0.00 | 57 | 1007.4 |
| 20260507151020 | 9 | 242 | 8.0 | 20.9 | 0.00 | 0.00 | 0.00 | 57 | 1007.3 |
| 20260507150018 | 8 | 286 | 6.4 | 16.1 | 0.00 | 0.00 | 0.00 | 59 | 1007.4 |
| 20260507145019 | 8 | 252 | 6.4 | 16.1 | 0.00 | 0.00 | 0.00 | 60 | 1007.4 |
| 20260507144020 | 8 | 216 | 8.0 | 14.5 | 0.00 | 0.00 | 0.00 | 61 | 1007.4 |
| 20260507143019 | 8 | 220 | 8.0 | 19.3 | 0.00 | 0.00 | 0.00 | 61 | 1007.4 |
| 20260507142018 | 8 | 211 | 8.0 | 14.5 | 0.00 | 0.00 | 0.00 | 61 | 1007.4 |
| 20260507141018 | 8 | 216 | 6.4 | 12.9 | 0.00 | 0.00 | 0.00 | 62 | 1007.4 |
| 20260507140019 | 8 | 230 | 6.4 | 17.7 | 0.00 | 0.00 | 0.00 | 62 | 1007.4 |
| 20260507135039 | 7 | 213 | 8.0 | 17.7 | 0.00 | 0.00 | 0.00 | 63 | 1007.5 |
| 20260507134019 | 7 | 219 | 8.0 | 14.5 | 0.00 | 0.00 | 0.00 | 64 | 1007.5 |
| 20260507133019 | 8 | 221 | 8.0 | 16.1 | 0.00 | 0.00 | 0.00 | 63 | 1007.5 |
| 20260507132019 | 7 | 240 | 6.4 | 12.9 | 0.00 | 0.00 | 0.00 | 64 | 1007.5 |
| 20260507131040 | 7 | 203 | 8.0 | 17.7 | 0.00 | 0.00 | 0.00 | 64 | 1007.5 |
| 20260507130017 | 7 | 260 | 6.4 | 17.7 | 0.00 | 0.00 | 0.00 | 65 | 1007.7 |
| 20260507125020 | 7 | 266 | 8.0 | 25.7 | 0.00 | 0.00 | 0.00 | 65 | 1007.7 |
| 20260507124017 | 7 | 287 | 8.0 | 20.9 | 0.00 | 0.00 | 0.00 | 65 | 1007.6 |
| 20260507123017 | 7 | 280 | 8.0 | 17.7 | 0.00 | 0.00 | 0.00 | 66 | 1007.7 |
| 20260507122021 | 6 | 245 | 6.4 | 12.9 | 0.00 | 0.00 | 0.00 | 68 | 1007.7 |
| 20260507121040 | 6 | 266 | 6.4 | 16.1 | 0.00 | 0.00 | 0.00 | 69 | 1007.7 |
| 20260507120017 | 6 | 254 | 6.4 | 11.3 | 0.00 | 0.00 | 0.00 | 69 | 1007.6 |
| 20260507115019 | 6 | 242 | 6.4 | 14.5 | 0.00 | 0.00 | 0.00 | 69 | 1007.7 |
| 20260507114017 | 6 | 276 | 9.7 | 25.7 | 0.00 | 0.00 | 0.00 | 69 | 1007.7 |
| 20260507113018 | 7 | 246 | 6.4 | 20.9 | 0.00 | 0.00 | 0.00 | 68 | 1007.7 |
| 20260507112018 | 7 | 253 | 6.4 | 12.9 | 0.00 | 0.00 | 0.00 | 69 | 1007.5 |
| 20260507111018 | 7 | 224 | 6.4 | 14.5 | 0.00 | 0.00 | 0.00 | 78 | 1007.3 |
| 20260507110018 | 7 | 217 | 6.4 | 14.5 | 0.00 | 0.00 | 0.00 | 80 | 1007.1 |
| 20260507105018 | 7 | 202 | 4.8 | 9.7 | 0.00 | 0.00 | 0.00 | 81 | 1007.0 |
| 20260507104039 | 7 | 211 | 6.4 | 14.5 | 0.00 | 0.00 | 0.00 | 81 | 1006.9 |
| 20260507103040 | 7 | 227 | 6.4 | 12.9 | 0.00 | 0.00 | 0.00 | 84 | 1006.8 |
| 20260507102025 | 7 | 261 | 4.8 | 12.9 | 0.00 | 0.00 | 0.00 | 85 | 1007.0 |
| 20260507101020 | 7 | 256 | 4.8 | 9.7 | 0.00 | 0.00 | 0.00 | 82 | 1007.0 |
| 20260507100020 | 7 | 209 | 6.4 | 11.3 | 0.00 | 0.00 | 0.00 | 83 | 1007.0 |
| 20260507095019 | 7 | 212 | 4.8 | 9.7 | 0.00 | 0.00 | 0.00 | 84 | 1007.1 |
| 20260507094020 | 7 | 221 | 6.4 | 12.9 | 0.00 | 0.00 | 0.00 | 85 | 1007.1 |
| 20260507093021 | 7 | 243 | 4.8 | 12.9 | 0.00 | 0.00 | 0.00 | 86 | 1007.0 |
| 20260507092019 | 7 | 237 | 4.8 | 9.7 | 0.00 | 0.00 | 0.00 | 86 | 1006.9 |
| 20260507091020 | 7 | 200 | 4.8 | 11.3 | 0.00 | 0.00 | 0.00 | 86 | 1006.9 |
| 20260507090020 | 7 | 245 | 4.8 | 9.7 | 0.00 | 0.00 | 0.00 | 86 | 1006.8 |
| 20260507085024 | 7 | 217 | 4.8 | 8.0 | 0.00 | 0.00 | 0.00 | 87 | 1006.8 |
| 20260507084025 | 7 | 214 | 3.2 | 4.8 | 0.00 | 0.00 | 0.00 | 87 | 1006.9 |
| 20260507083021 | 7 | 222 | 4.8 | 12.9 | 0.00 | 0.00 | 0.00 | 87 | 1006.9 |
| 20260507082107 | 7 | 235 | 3.2 | 8.0 | 0.00 | 0.00 | 0.00 | 87 | 1007.1 |
| 20260507081027 | 7 | 224 | 3.2 | 8.0 | 0.00 | 0.00 | 0.00 | 87 | 1007.2 |
| 20260507080021 | 7 | 199 | 3.2 | 11.3 | 0.00 | 0.00 | 0.00 | 86 | 1007.2 |
| 20260507075021 | 7 | 212 | 4.8 | 6.4 | 0.00 | 0.00 | 0.00 | 86 | 1007.3 |
| 20260507074027 | 7 | 251 | 4.8 | 8.0 | 0.00 | 0.00 | 0.00 | 86 | 1007.3 |
| 20260507073026 | 7 | 208 | 3.2 | 8.0 | 0.00 | 0.00 | 0.00 | 85 | 1007.3 |
| 20260507072046 | 7 | 236 | 1.6 | 6.4 | 0.00 | 0.00 | 0.00 | 85 | 1007.3 |
| 20260507071026 | 7 | 238 | 3.2 | 8.0 | 0.00 | 0.00 | 0.00 | 84 | 1007.2 |
| 20260507070047 | 7 | 234 | 3.2 | 6.4 | 0.00 | 0.00 | 0.00 | 84 | 1007.2 |
| 20260507065021 | 7 | 267 | 4.8 | 12.9 | 0.00 | 0.00 | 0.00 | 83 | 1007.2 |
| 20260507064027 | 7 | 275 | 4.8 | 8.0 | 0.00 | 0.00 | 0.00 | 83 | 1007.3 |
| 20260507063022 | 7 | 238 | 4.8 | 11.3 | 0.00 | 0.00 | 0.00 | 82 | 1007.3 |
| 20260507062022 | 7 | 270 | 4.8 | 11.3 | 0.00 | 0.00 | 0.00 | 83 | 1007.4 |
| 20260507061027 | 7 | 292 | 3.2 | 9.7 | 0.00 | 0.00 | 0.00 | 83 | 1007.5 |
| 20260507060022 | 7 | 257 | 3.2 | 8.0 | 0.00 | 0.00 | 0.00 | 83 | 1007.5 |
| 20260507055022 | 7 | 256 | 4.8 | 11.3 | 0.00 | 0.00 | 0.00 | 83 | 1007.7 |
| 20260507054028 | 7 | 242 | 3.2 | 9.7 | 0.00 | 0.00 | 0.00 | 83 | 1007.8 |
| 20260507053023 | 7 | 285 | 3.2 | 9.7 | 0.00 | 0.00 | 0.00 | 83 | 1007.8 |
| 20260507052027 | 7 | 306 | 3.2 | 6.4 | 0.00 | 0.00 | 0.00 | 83 | 1007.9 |
| 20260507051017 | 7 | 286 | 4.8 | 9.7 | 0.00 | 0.00 | 0.00 | 83 | 1008.0 |
| 20260507050027 | 7 | 273 | 3.2 | 8.0 | 0.00 | 0.00 | 0.00 | 83 | 1008.2 |
| 20260507045023 | 7 | 240 | 3.2 | 9.7 | 0.00 | 0.00 | 0.00 | 83 | 1008.4 |
| 20260507044017 | 7 | 252 | 4.8 | 11.3 | 0.00 | 0.00 | 0.00 | 83 | 1008.5 |
| 20260507043017 | 7 | 283 | 3.2 | 8.0 | 0.00 | 0.00 | 0.00 | 84 | 1008.5 |
| 20260507042028 | 7 | 257 | 3.2 | 6.4 | 0.00 | 0.00 | 0.00 | 84 | 1008.6 |
| 20260507041028 | 7 | 227 | 3.2 | 8.0 | 0.00 | 0.00 | 0.00 | 84 | 1008.7 |
| 20260507040018 | 7 | 252 | 3.2 | 6.4 | 0.00 | 0.00 | 0.00 | 86 | 1008.7 |
| 20260507035028 | 7 | 286 | 3.2 | 4.8 | 0.00 | 0.00 | 0.00 | 87 | 1008.7 |
| 20260507034029 | 7 | 203 | 3.2 | 4.8 | 0.00 | 0.00 | 0.00 | 87 | 1008.8 |
| 20260507033028 | 7 | 208 | 3.2 | 4.8 | 0.00 | 0.00 | 0.00 | 87 | 1008.9 |
| 20260507032028 | 7 | 200 | 3.2 | 3.2 | 0.00 | 0.00 | 0.00 | 85 | 1009.0 |
| 20260507031029 | 7 | 209 | 1.6 | 4.8 | 0.00 | 0.00 | 0.00 | 84 | 1009.1 |
| 20260507030049 | 7 | 207 | 3.2 | 4.8 | 0.00 | 0.00 | 0.00 | 82 | 1009.2 |
| 20260507025029 | 7 | 212 | 3.2 | 6.4 | 0.00 | 0.00 | 0.00 | 83 | 1009.1 |
| 20260507024051 | 7 | 226 | 3.2 | 6.4 | 0.00 | 0.00 | 0.00 | 82 | 1009.1 |
| 20260507023029 | 7 | 212 | 1.6 | 3.2 | 0.00 | 0.00 | 0.00 | 82 | 1009.2 |
| 20260507022029 | 7 | 249 | 3.2 | 6.4 | 0.00 | 0.00 | 0.00 | 81 | 1009.2 |
| 20260507021030 | 7 | 245 | 3.2 | 6.4 | 0.00 | 0.00 | 0.00 | 80 | 1009.4 |
| 20260507020031 | 7 | 224 | 3.2 | 4.8 | 0.00 | 0.00 | 0.00 | 79 | 1009.4 |
| 20260507015110 | 7 | 293 | 3.2 | 6.4 | 0.00 | 0.00 | 0.00 | 81 | 1009.5 |
| 20260507014017 | 7 | 220 | 1.6 | 4.8 | 0.00 | 0.00 | 0.00 | 81 | 1009.5 |
| 20260507013017 | 7 | 204 | 1.6 | 6.4 | 0.00 | 0.00 | 0.00 | 81 | 1009.6 |
| 20260507012032 | 7 | 221 | 1.6 | 4.8 | 0.00 | 0.00 | 0.00 | 80 | 1009.5 |
| 20260507011031 | 7 | 212 | 3.2 | 4.8 | 0.00 | 0.00 | 0.00 | 81 | 1009.5 |
| 20260507010018 | 7 | 215 | 3.2 | 6.4 | 0.00 | 0.00 | 0.00 | 81 | 1009.3 |
| 20260507005018 | 7 | 222 | 3.2 | 6.4 | 0.00 | 0.00 | 0.00 | 82 | 1009.4 |
| 20260507004017 | 7 | 217 | 1.6 | 4.8 | 0.00 | 0.00 | 0.00 | 81 | 1009.2 |
| 20260507003018 | 7 | 214 | 3.2 | 6.4 | 0.00 | 0.00 | 0.00 | 80 | 1009.0 |
| 20260507002018 | 8 | 213 | 1.6 | 4.8 | 0.00 | 0.00 | 0.00 | 79 | 1008.9 |
| 20260507001018 | 8 | 216 | 3.2 | 6.4 | 0.00 | 0.00 | 0.00 | 79 | 1008.9 |
| 20260507000019 | 8 | 219 | 1.6 | 8.0 | 0.00 | 0.00 | 0.00 | 79 | 1008.9 |
| 20260506235019 | 8 | 218 | 1.6 | 4.8 | 0.00 | 0.00 | 0.00 | 78 | 1008.8 |
| 20260506234019 | 8 | 235 | 3.2 | 6.4 | 0.00 | 0.00 | 0.00 | 77 | 1008.8 |
| 20260506233016 | 8 | 298 | 1.6 | 6.4 | 0.00 | 0.00 | 0.00 | 76 | 1008.7 |
| 20260506232019 | 8 | 269 | 1.6 | 8.0 | 0.00 | 0.00 | 0.00 | 76 | 1008.6 |
| 20260506231020 | 8 | 254 | 3.2 | 6.4 | 0.00 | 0.00 | 0.00 | 74 | 1008.5 |
| 20260506230021 | 8 | 241 | 3.2 | 8.0 | 0.00 | 0.00 | 0.00 | 75 | 1008.5 |
| 20260506225039 | 8 | 297 | 1.6 | 4.8 | 0.00 | 0.00 | 0.00 | 75 | 1008.6 |
| 20260506224020 | 8 | 233 | 1.6 | 6.4 | 0.00 | 0.00 | 0.00 | 75 | 1008.6 |
| 20260506223021 | 8 | 242 | 3.2 | 8.0 | 0.00 | 0.00 | 0.00 | 75 | 1008.7 |
| 20260506222039 | 9 | 317 | 4.8 | 9.7 | 0.00 | 0.00 | 0.00 | 74 | 1008.7 |
| 20260506221017 | 9 | 302 | 3.2 | 6.4 | 0.00 | 0.00 | 0.00 | 74 | 1008.7 |
| 20260506220019 | 8 | 319 | 3.2 | 6.4 | 0.00 | 0.00 | 0.00 | 75 | 1008.7 |
| 20260506215018 | 8 | 219 | 3.2 | 9.7 | 0.00 | 0.00 | 0.00 | 75 | 1008.7 |
| 20260506214018 | 8 | 313 | 3.2 | 6.4 | 0.00 | 0.00 | 0.00 | 75 | 1008.6 |
| 20260506213018 | 8 | 315 | 3.2 | 6.4 | 0.00 | 0.00 | 0.00 | 77 | 1008.7 |
| 20260506212019 | 8 | 287 | 1.6 | 4.8 | 0.00 | 0.00 | 0.00 | 78 | 1008.6 |
| 20260506211020 | 8 | 274 | 1.6 | 4.8 | 0.00 | 0.00 | 0.00 | 79 | 1008.8 |
| 20260506210019 | 8 | 238 | 3.2 | 6.4 | 0.00 | 0.00 | 0.00 | 78 | 1009.0 |
| 20260506205019 | 8 | 232 | 3.2 | 6.4 | 0.00 | 0.00 | 0.00 | 79 | 1008.9 |
| 20260506204039 | 8 | 289 | 1.6 | 4.8 | 0.00 | 0.00 | 0.00 | 79 | 1008.9 |